Location: Unspecified
(0.0000°N, 0.0000°E)
Time: 09:54:44
(UTC+01:00)

Ariane H10+ - Visible Passes

Search period start: 01 November 2014 00:00
Search period end: 11 November 2014 00:00
Orbit: 323 x 31807 km, 7.0° (Epoch: 29 October)

Date Brightness Start Highest point End Pass type
(mag) Time Alt. Az. Time Alt. Az. Time Alt. Az.
02 Nov 7.6 01:46:39 50° ENE 01:46:39 50° ENE 09:57:07 10° E visible
02 Nov 2.6 19:48:09 10° W 19:53:08 51° NNW 19:53:44 40° NE visible
03 Nov 7.6 05:39:46 16° W 07:21:38 85° WSW 14:16:11 10° E visible
04 Nov 8.4 03:54:44 10° E 00:15:09 17° E 07:52:57 10° E visible
05 Nov 7.3 04:08:11 50° WNW 04:25:59 85° N 12:38:00 10° E visible
07 Nov 7.3 02:36:29 75° NE 02:36:29 75° NE 10:56:25 10° E visible
07 Nov 5.4 20:42:59 10° WNW 20:43:04 11° WNW 20:43:04 11° WNW visible
09 Nov 7.9 01:04:38 36° E 01:04:38 36° E 09:06:50 10° E visible
09 Nov 3.3 19:00:39 10° W 19:08:20 59° NNW 19:10:50 10° ENE visible
10 Nov 7.7 04:57:28 29° W 05:52:30 89° SSW 13:30:55 10° E visible
